Find Starlink 33916

NORAD ID: 63792 Int'l Des: 2025-091 Owner: SPXS Country: US Constellation: starlink operational
LEOCIRCULAR

Current View

Loading 3D Globe...

About Starlink 33916

Starlink 33916 (NORAD 63792) is a starlink constellation satellite (v2 mini) launched May 2, 2025 by SPXS of US. It operates in LEO, CIRCULAR orbit with a mass of 575.00 kg.

About Starlink 33916

Description loading...

Upcoming Passes

Passes for default location (London). Set your location on the main map for personalized predictions.

Altitude History

Loading altitude history...

Two-Line Element Set

1 63792U 25091T 26170.13413054 .00013041 00000-0 48231-3 0 9991
2 63792 42.9994 199.8962 0001284 267.3505 92.7199 15.27599079 64419
Epoch: Jun 19, 2026 • Age: 21 hours

Current Status

Altitude 490.6 km
Velocity 7.62 km/s
Sub-Earth Point -30.86°S, 136.98°E
Launch Date May 2, 2025
Age 1.1 years
Type internet

Technical Details

Classification Payload
Mass 575.00 kg
Dry Mass 530.00 kg
Total Mass 575.00 kg
Length 0.30 m
Diameter 4.10 m
Span 29.00 m
Shape Box + pan
Manufacturer SPXS
Bus Type Starlink V2MO
Phase Status In Orbit
Owner/State SPXS/US

Most Searched